Terminal Aerodrome Forecast
Issued by NWS

Home | Current Version | Previous Version | Text Only | Print | Product List | Glossary On
Versions: 1 2 3 4 5 6 7 8 9 10 11 12 13 14
000
FTUS46 KSEW 260500
TAFHQM
TAF
KHQM 260535Z 2606/2706 VRB03KT P6SM SKC
      TEMPO 2608/2611 4SM BR
     FM261100 07004KT P6SM SCT070 OVC150
     FM261700 10008KT P6SM BKN060 OVC100
     FM262200 14012KT P6SM -RA SCT015 OVC030=

USA.gov is the U.S. government's official web portal to all federal, state and local government web resources and services.